TimeCST,TemperatureF,Dew PointF,Humidity,Sea Level PressureIn,VisibilityMPH,Wind Direction,Wind SpeedMPH,Gust SpeedMPH,PrecipitationIn,Events,Conditions,WindDirDegrees,DateUTC
12:15 AM,32.0,28.4,87,30.09,9.0,NNE,8.1,-,0.00,,Overcast,20,2012-12-11 06:15:00
12:35 AM,32.0,28.4,87,30.09,10.0,North,8.1,-,0.00,,Overcast,360,2012-12-11 06:35:00
12:55 AM,32.0,28.4,87,30.09,10.0,North,8.1,-,0.00,,Overcast,350,2012-12-11 06:55:00
1:15 AM,32.0,28.4,87,30.09,10.0,North,8.1,-,0.00,,Overcast,10,2012-12-11 07:15:00
1:35 AM,32.0,28.4,87,30.08,7.0,NNE,6.9,-,0.00,,Overcast,20,2012-12-11 07:35:00
1:55 AM,32.0,28.4,87,30.08,10.0,NE,9.2,-,0.00,,Overcast,50,2012-12-11 07:55:00
2:15 AM,32.0,28.4,87,30.09,10.0,NNE,8.1,-,0.00,,Overcast,20,2012-12-11 08:15:00
2:35 AM,32.0,28.4,87,30.10,10.0,North,5.8,-,0.00,,Overcast,10,2012-12-11 08:35:00
2:55 AM,32.0,28.4,87,30.10,9.0,North,4.6,-,0.00,,Overcast,10,2012-12-11 08:55:00
3:15 AM,32.0,28.4,87,30.10,7.0,North,8.1,-,0.00,,Overcast,10,2012-12-11 09:15:00
3:35 AM,32.0,28.4,87,30.11,10.0,North,5.8,-,0.00,,Overcast,10,2012-12-11 09:35:00
3:55 AM,32.0,28.4,87,30.12,10.0,Calm,Calm,-,N/A,,Overcast,0,2012-12-11 09:55:00
4:15 AM,32.0,26.6,80,30.11,10.0,NE,8.1,-,0.00,,Overcast,50,2012-12-11 10:15:00
4:35 AM,32.0,26.6,80,30.11,10.0,NE,4.6,-,0.00,,Overcast,40,2012-12-11 10:35:00
4:55 AM,32.0,26.6,80,30.11,9.0,NNE,8.1,-,N/A,,Scattered Clouds,30,2012-12-11 10:55:00
5:15 AM,30.2,28.4,93,30.12,9.0,North,6.9,-,0.00,,Partly Cloudy,10,2012-12-11 11:15:00
5:35 AM,30.2,28.4,93,30.12,9.0,NNE,3.5,-,0.00,,Clear,20,2012-12-11 11:35:00
5:55 AM,30.2,28.4,93,30.13,10.0,Calm,Calm,-,0.00,,Clear,0,2012-12-11 11:55:00
6:50 AM,26.6,26.6,100,30.15,10.0,North,4.6,-,N/A,,Scattered Clouds,350,2012-12-11 12:50:00
7:50 AM,30.2,30.2,100,30.16,10.0,North,5.8,-,N/A,,Partly Cloudy,10,2012-12-11 13:50:00
8:50 AM,32.0,28.4,87,30.18,10.0,NNE,8.1,-,N/A,,Partly Cloudy,30,2012-12-11 14:50:00
9:50 AM,33.8,28.4,81,30.21,10.0,NE,6.9,-,N/A,,Partly Cloudy,40,2012-12-11 15:50:00
11:50 AM,39.2,26.6,61,30.21,10.0,NW,4.6,-,N/A,,Partly Cloudy,320,2012-12-11 17:50:00
12:50 PM,41.0,26.6,57,30.18,10.0,NNW,8.1,-,N/A,,Partly Cloudy,340,2012-12-11 18:50:00
1:50 PM,42.8,24.8,49,30.17,10.0,NNE,8.1,-,N/A,,Partly Cloudy,20,2012-12-11 19:50:00
2:45 PM,42.8,24.8,49,30.15,10.0,NNE,10.4,-,N/A,,Partly Cloudy,30,2012-12-11 20:45:00
3:50 PM,41.0,23.0,49,30.17,10.0,North,6.9,-,N/A,,Partly Cloudy,10,2012-12-11 21:50:00
4:50 PM,35.6,24.8,65,30.17,10.0,North,4.6,-,N/A,,Partly Cloudy,10,2012-12-11 22:50:00
5:50 PM,35.6,24.8,65,30.19,10.0,Calm,Calm,-,N/A,,Partly Cloudy,0,2012-12-11 23:50:00
6:50 PM,35.6,24.8,65,30.21,10.0,Calm,Calm,-,N/A,,Partly Cloudy,0,2012-12-12 00:50:00
7:50 PM,32.0,28.4,87,30.22,10.0,Calm,Calm,-,N/A,,Partly Cloudy,0,2012-12-12 01:50:00
8:15 PM,32.0,30.2,93,30.22,10.0,Calm,Calm,-,0.00,,Clear,0,2012-12-12 02:15:00
8:35 PM,32.0,28.4,87,30.23,10.0,Calm,Calm,-,0.00,,Clear,0,2012-12-12 02:35:00
8:55 PM,33.8,26.6,75,30.24,10.0,Calm,Calm,-,0.00,,Clear,0,2012-12-12 02:55:00
9:15 PM,32.0,28.4,87,30.24,10.0,Calm,Calm,-,0.00,,Clear,0,2012-12-12 03:15:00
9:35 PM,32.0,28.4,87,30.25,10.0,Calm,Calm,-,0.00,,Clear,0,2012-12-12 03:35:00
9:55 PM,28.4,28.4,100,30.26,10.0,Calm,Calm,-,0.00,,Clear,0,2012-12-12 03:55:00
10:15 PM,30.2,30.2,100,30.26,10.0,Calm,Calm,-,0.00,,Clear,0,2012-12-12 04:15:00
10:35 PM,30.2,30.2,100,30.26,10.0,Calm,Calm,-,0.00,,Clear,0,2012-12-12 04:35:00
10:55 PM,30.2,30.2,100,30.27,10.0,Calm,Calm,-,0.00,,Clear,0,2012-12-12 04:55:00
11:15 PM,30.2,30.2,100,30.27,8.0,Calm,Calm,-,0.00,,Clear,0,2012-12-12 05:15:00
11:35 PM,30.2,30.2,100,30.27,10.0,Calm,Calm,-,0.00,,Clear,0,2012-12-12 05:35:00
11:55 PM,30.2,30.2,100,30.27,8.0,Calm,Calm,-,0.00,,Clear,0,2012-12-12 05:55:00